FW8972 Weather Reports


time (UTC)temp
F
wind
direction
speed
knots
gust
knots
rain 1hr
in
rain 24hr
in
rain mn
in
humidity
%
barometer
mb
20260504151003 66 5 0.0 2.6 0.00 0.00 0.00 41 1010.3
20260504150504 65 360 0.0 3.5 0.00 0.00 0.00 41 1010.2
20260504141048 55 10 0.0 2.6 0.00 0.00 0.00 59 1009.9
20260504140547 55 336 0.0 0.0 0.00 0.00 0.00 60 1009.9
20260504130535 52 299 0.0 0.0 0.00 0.00 0.00 56 1009.8
20260504110514 59 299 0.0 0.0 0.00 0.00 0.00 44 1009.3
20260504100503 63 299 0.0 0.9 0.00 0.00 0.00 39 1009.3
20260504081550 65 297 0.0 0.9 0.00 0.00 0.00 37 1009.5
20260504081049 65 299 0.0 0.9 0.00 0.00 0.00 36 1009.4
20260504080549 65 298 0.0 0.9 0.00 0.00 0.00 36 1009.3
20260504050537 66 306 0.0 0.0 0.00 0.00 0.00 34 1009.5
20260504045536 66 306 0.0 0.0 0.00 0.00 0.00 34 1009.5
20260504045035 66 306 0.0 0.0 0.00 0.00 0.00 34 1009.6
20260504044538 67 306 0.0 0.0 0.00 0.00 0.00 34 1009.6
20260504044035 67 306 0.0 0.0 0.00 0.00 0.00 34 1009.6
20260504043535 67 306 0.0 1.7 0.00 0.00 0.00 34 1009.5
20260504043042 67 306 0.0 1.7 0.00 0.00 0.00 35 1009.6
20260504042534 67 306 0.0 0.0 0.00 0.00 0.00 35 1009.6
20260504042034 67 306 0.0 0.0 0.00 0.00 0.00 35 1009.6
20260504041535 67 306 0.0 0.0 0.00 0.00 0.00 35 1009.6
20260504041034 67 306 0.0 0.0 0.00 0.00 0.00 35 1009.6
20260504040535 68 306 0.0 0.9 0.00 0.00 0.00 34 1009.6
20260504040035 68 306 0.0 0.9 0.00 0.00 0.00 34 1009.6
20260504035535 69 306 0.0 0.9 0.00 0.00 0.00 34 1009.4
20260504035037 69 306 0.0 0.9 0.00 0.00 0.00 32 1009.4
20260504034539 70 306 0.0 0.9 0.00 0.00 0.00 31 1009.5
20260504034032 71 306 0.0 0.0 0.00 0.00 0.00 31 1009.5
20260504033532 71 306 0.0 0.0 0.00 0.00 0.00 29 1009.5
20260504033032 72 306 0.0 0.0 0.00 0.00 0.00 27 1009.6
20260504032532 72 306 0.0 0.0 0.00 0.00 0.00 26 1009.6
20260504032035 73 306 0.0 0.0 0.00 0.00 0.00 26 1009.6
20260504031532 73 306 0.0 0.0 0.00 0.00 0.00 26 1009.7
20260504031032 74 306 0.0 0.0 0.00 0.00 0.00 25 1009.7
20260504030531 75 306 0.0 0.0 0.00 0.00 0.00 25 1009.7
20260504030030 75 306 0.0 0.0 0.00 0.00 0.00 25 1009.7
20260504025533 76 306 0.0 0.0 0.00 0.00 0.00 25 1009.8
20260504025031 76 306 0.0 0.0 0.00 0.00 0.00 25 1009.9
20260504024530 77 306 0.0 0.9 0.00 0.00 0.00 25 1009.9
20260504024028 77 306 0.0 0.9 0.00 0.00 0.00 24 1009.9
20260504023529 77 306 0.0 0.9 0.00 0.00 0.00 23 1009.9
20260504023028 78 306 0.0 0.9 0.00 0.00 0.00 21 1010.0
20260504022530 78 303 0.0 0.9 0.00 0.00 0.00 22 1010.0
20260504022028 78 303 0.0 0.9 0.00 0.00 0.00 21 1010.0
20260504021533 78 302 0.0 1.7 0.00 0.00 0.00 19 1010.1
20260504021027 78 302 0.0 3.5 0.00 0.00 0.00 19 1010.2
20260504020527 78 304 0.9 3.5 0.00 0.00 0.00 21 1010.2
20260504020029 78 333 0.9 3.5 0.00 0.00 0.00 21 1010.2
20260504015527 78 339 0.9 3.5 0.00 0.00 0.00 21 1010.2
20260504015025 78 293 0.0 3.5 0.00 0.00 0.00 20 1010.3
20260504014534 79 5 0.0 3.5 0.00 0.00 0.00 19 1010.3
20260504014023 79 329 0.0 3.5 0.00 0.00 0.00 19 1010.5
20260504013524 79 341 0.0 4.3 0.00 0.00 0.00 19 1010.4
20260504013023 79 321 0.0 3.5 0.00 0.00 0.00 20 1010.5
20260504012524 80 360 0.9 3.5 0.00 0.00 0.00 19 1010.4
20260504012024 80 323 0.9 2.6 0.00 0.00 0.00 19 1010.5
20260504011523 80 348 0.9 3.5 0.00 0.00 0.00 18 1010.5
20260504011022 81 298 0.0 3.5 0.00 0.00 0.00 17 1010.5
20260504010523 81 12 1.7 3.5 0.00 0.00 0.00 17 1010.6
20260504010021 81 327 0.9 5.2 0.00 0.00 0.00 17 1010.6
20260504005521 80 261 1.7 4.3 0.00 0.00 0.00 17 1010.6
20260504005020 80 315 0.9 3.5 0.00 0.00 0.00 17 1010.7
20260504004520 80 348 0.9 4.3 0.00 0.00 0.00 18 1010.7
20260504004018 81 311 0.9 4.3 0.00 0.00 0.00 19 1010.8
20260504003517 81 330 0.9 3.5 0.00 0.00 0.00 19 1010.9
20260504003016 80 267 0.0 4.3 0.00 0.00 0.00 20 1010.9
20260504002514 80 5 0.9 4.3 0.00 0.00 0.00 21 1010.9
20260504002014 80 304 0.9 2.6 0.00 0.00 0.00 21 1011.0
20260504001513 80 46 0.9 3.5 0.00 0.00 0.00 22 1011.0
20260504001012 80 26 0.9 3.5 0.00 0.00 0.00 21 1011.1
20260504000512 80 74 1.7 3.5 0.00 0.00 0.00 22 1011.0
20260504000011 79 274 0.9 3.5 0.00 0.00 0.00 22 1011.2
20260503235514 79 355 0.9 3.5 0.00 0.00 0.00 23 1011.2
20260503235011 80 40 0.9 2.6 0.00 0.00 0.00 23 1011.3
20260503234516 80 44 0.9 3.5 0.00 0.00 0.00 22 1011.4
20260503234008 80 105 0.9 3.5 0.00 0.00 0.00 23 1011.4
20260503233507 79 292 0.9 3.5 0.00 0.00 0.00 23 1011.5
20260503233005 79 355 1.7 3.5 0.00 0.00 0.00 23 1011.5
20260503232505 79 5 0.9 4.3 0.00 0.00 0.00 23 1011.5
20260503232004 78 22 0.0 4.3 0.00 0.00 0.00 23 1011.7
20260503231504 79 316 0.9 4.3 0.00 0.00 0.00 23 1011.7
20260503231004 78 66 0.9 5.2 0.00 0.00 0.00 24 1011.8
20260503230501 78 360 1.7 5.2 0.00 0.00 0.00 23 1011.7
20260503230001 78 72 0.9 6.1 0.00 0.00 0.00 23 1011.8
20260503225500 78 31 1.7 7.0 0.00 0.00 0.00 22 1011.9
20260503224604 78 5 1.7 5.2 0.00 0.00 0.00 23 1011.9
20260503224058 77 50 0.9 5.2 0.00 0.00 0.00 25 1012.0
20260503223558 77 347 0.9 7.0 0.00 0.00 0.00 26 1012.1
20260503223059 78 5 2.6 7.0 0.00 0.00 0.00 24 1012.1
20260503222559 77 9 1.7 4.3 0.00 0.00 0.00 25 1012.3
20260503222055 77 48 1.7 4.3 0.00 0.00 0.00 25 1012.4
20260503221556 77 20 2.6 5.2 0.00 0.00 0.00 24 1012.5
20260503221056 77 10 1.7 5.2 0.00 0.00 0.00 24 1012.5
20260503220553 77 38 0.9 5.2 0.00 0.00 0.00 25 1012.5
20260503220053 76 360 1.7 7.0 0.00 0.00 0.00 24 1012.6
20260503215552 77 360 1.7 4.3 0.00 0.00 0.00 25 1012.6
20260503215050 76 325 0.9 4.3 0.00 0.00 0.00 25 1012.7
20260503214550 76 28 0.9 5.2 0.00 0.00 0.00 25 1012.8
20260503214048 76 5 2.6 5.2 0.00 0.00 0.00 25 1013.2
20260503213547 75 43 0.9 4.3 0.00 0.00 0.00 29 1013.0
20260503213046 74 53 1.7 6.1 0.00 0.00 0.00 28 1013.1
20260503212546 75 5 0.9 5.2 0.00 0.00 0.00 27 1013.2
20260503212044 74 49 0.9 5.2 0.00 0.00 0.00 27 1013.2
20260503211603 74 12 1.7 5.2 0.00 0.00 0.00 26 1013.3
20260503211042 74 59 1.7 5.2 0.00 0.00 0.00 28 1013.4
20260503210541 73 331 1.7 5.2 0.00 0.00 0.00 27 1013.3
20260503210040 73 340 1.7 4.3 0.00 0.00 0.00 28 1013.3
20260503205539 73 360 1.7 4.3 0.00 0.00 0.00 29 1013.3
20260503205039 72 34 0.9 7.8 0.00 0.00 0.00 31 1013.5
20260503204538 72 333 3.5 7.8 0.00 0.00 0.00 29 1013.4
20260503204037 72 57 0.9 7.0 0.00 0.00 0.00 31 1013.5
20260503203536 72 341 0.9 5.2 0.00 0.00 0.00 31 1013.5
20260503203044 72 21 1.7 7.0 0.00 0.00 0.00 31 1013.5
20260503202535 72 9 2.6 7.0 0.00 0.00 0.00 31 1013.6
20260503202035 72 21 1.7 7.0 0.00 0.00 0.00 31 1013.7
20260503201535 71 44 1.7 7.0 0.00 0.00 0.00 31 1013.8
20260503201034 71 299 0.9 3.5 0.00 0.00 0.00 33 1013.8
20260503200532 70 355 0.9 7.0 0.00 0.00 0.00 35 1013.9
20260503200046 71 41 3.5 7.0 0.00 0.00 0.00 33 1013.9
20260503195531 71 25 0.9 5.2 0.00 0.00 0.00 35 1014.1
20260503195031 72 351 0.9 5.2 0.00 0.00 0.00 35 1014.2
20260503194530 71 319 1.7 5.2 0.00 0.00 0.00 37 1014.2
20260503194030 72 34 2.6 5.2 0.00 0.00 0.00 33 1014.2
20260503193528 72 17 1.7 5.2 0.00 0.00 0.00 35 1014.3
20260503193033 72 346 1.7 5.2 0.00 0.00 0.00 35 1014.3
20260503192526 71 30 1.7 4.3 0.00 0.00 0.00 33 1014.3
20260503192026 71 9 0.0 4.3 0.00 0.00 0.00 36 1014.4
20260503191523 71 5 1.7 3.5 0.00 0.00 0.00 36 1014.4
20260503191022 70 100 0.9 4.3 0.00 0.00 0.00 37 1014.4
20260503190521 70 61 0.9 4.3 0.00 0.00 0.00 38 1014.4
20260503190021 68 18 1.7 4.3 0.00 0.00 0.00 39 1014.5
20260503185519 68 254 0.0 3.5 0.00 0.00 0.00 39 1014.6
20260503185024 67 84 1.7 3.5 0.00 0.00 0.00 39 1014.6
20260503184516 67 65 1.7 4.3 0.00 0.00 0.00 40 1014.7
20260503184015 68 77 1.7 4.3 0.00 0.00 0.00 39 1014.8
20260503183514 69 51 1.7 4.3 0.00 0.00 0.00 37 1014.7
20260503183014 70 44 1.7 4.3 0.00 0.00 0.00 37 1014.8
20260503182512 69 32 1.7 5.2 0.00 0.00 0.00 37 1014.7
20260503182015 70 296 1.7 5.2 0.00 0.00 0.00 37 1014.9
20260503181510 69 355 0.9 5.2 0.00 0.00 0.00 38 1014.8
20260503181010 69 63 2.6 4.3 0.00 0.00 0.00 38 1014.8
20260503180509 68 55 1.7 5.2 0.00 0.00 0.00 39 1014.7
20260503180008 68 71 1.7 5.2 0.00 0.00 0.00 39 1014.8
20260503175506 68 34 1.7 4.3 0.00 0.00 0.00 41 1014.9
20260503175105 68 331 1.7 4.3 0.00 0.00 0.00 40 1014.9
20260503174503 69 5 1.7 4.3 0.00 0.00 0.00 38 1014.8
20260503174002 70 67 0.9 3.5 0.00 0.00 0.00 37 1014.8
20260503173502 70 25 0.9 3.5 0.00 0.00 0.00 38 1014.8
20260503173111 69 16 0.9 3.5 0.00 0.00 0.00 36 1014.9
20260503172558 69 243 0.9 3.5 0.00 0.00 0.00 36 1014.9
20260503172057 69 284 0.9 3.5 0.00 0.00 0.00 37 1015.1
20260503171555 68 15 0.9 4.3 0.00 0.00 0.00 38 1015.1
20260503171054 67 239 0.9 4.3 0.00 0.00 0.00 39 1015.1
20260503170553 66 332 0.9 2.6 0.00 0.00 0.00 41 1015.2